This is the latest recevied weather packets stored in our database for station/object W0WC. If no packets are shown the sender has not sent any weather packets the latest 10 day(s).
| Time | Temp. | Humidity | Pressure | Rain* | Wind** | Luminosity | Snow |
|---|---|---|---|---|---|---|---|
| 1777170587 | 19.44° C | 81% | 1009.7 hPa | 0 mm | - | 0 W/m² | - |
| 1777170284 | 19.44° C | 80% | 1009.6 hPa | 0 mm | - | 0 W/m² | - |
| 1777169981 | 19.44° C | 80% | 1009 hPa | 0 mm | - | 0 W/m² | - |
| 1777169678 | 19.44° C | 79% | 1009.4 hPa | 1.27 mm | - | 0 W/m² | - |
| 1777169374 | 19.44° C | 79% | 1009.1 hPa | 1.27 mm | - | 0 W/m² | - |
| 1777169069 | 20° C | 79% | 1008.7 hPa | 3.05 mm | - | 0 W/m² | - |
| 1777168765 | 20° C | 78% | 1008.7 hPa | 1.78 mm | - | 0 W/m² | - |
| 1777168461 | 20.56° C | 76% | 1009.1 hPa | 0 mm | - | 0 W/m² | - |
| 1777168159 | 20.56° C | 75% | 1009.4 hPa | 0 mm | - | 0 W/m² | - |
| 1777167856 | 20° C | 76% | 1008.8 hPa | 0 mm | - | 0 W/m² | - |
| 1777167551 | 20° C | 76% | 1008.4 hPa | 0 mm | - | 0 W/m² | - |
| 1777167247 | 20° C | 76% | 1007.8 hPa | 0 mm | - | 0 W/m² | - |
| 1777166942 | 20° C | 76% | 1007 hPa | 0 mm | - | 0 W/m² | - |
| 1777166642 | 20.56° C | 74% | 1006.8 hPa | 0 mm | - | 0 W/m² | - |
| 1777166339 | 21.11° C | 73% | 1008.8 hPa | 0 mm | - | 0 W/m² | - |
| 1777166034 | 21.11° C | 71% | 1009.2 hPa | 0 mm | - | 0 W/m² | - |
| 1777165733 | 21.67° C | 68% | 1008.8 hPa | 0 mm | - | 0 W/m² | - |
| 1777165428 | 21.67° C | 67% | 1009.2 hPa | 0 mm | - | 0 W/m² | - |
| 1777165125 | 21.67° C | 67% | 1009.1 hPa | 0 mm | - | 0 W/m² | - |
| 1777164820 | 21.67° C | 66% | 1009.3 hPa | 0 mm | - | 0 W/m² | - |
| 1777164519 | 21.67° C | 66% | 1009 hPa | 0 mm | - | 0 W/m² | - |
| 1777164219 | 22.22° C | 65% | 1008.8 hPa | 0 mm | - | 0 W/m² | - |
| 1777163914 | 22.22° C | 65% | 1008.2 hPa | 0 mm | - | 0 W/m² | - |
| 1777163614 | 22.22° C | 64% | 1008.2 hPa | 0 mm | - | 1 W/m² | - |
| 1777163310 | 22.22° C | 64% | 1008.1 hPa | 0 mm | - | 1 W/m² | - |
* Rain latest hour (hover to see other rain measurements)
** Current wind speed in m/s (hover to see current wind gust speed)